Weather in Churapcha

Russia / Sakha (Yakutia) Republic     61°59′47″N   132°26′26″E
temp.,
°C
wind,
m/s
gust,
m/s
humid.,
%
clouds,
%
prec.,
mm/h
press.,
hPa
HPBL,
m
21 april, wed
wed2100:00−20w2210079 0.0 10169
03:00−22wsw22100100 0.0 101811
06:00−16wsw2499100 0.0 101978
09:00−8w458285 0.0 1019467
12:00−5w347488 0.0 1019874
15:00−3w2368100 0.0 10191137
18:00−3wsw017922 0.1 102012
21:00−13ene118619 0.1 10229
22 april, thu
thu2200:00−17ene119660 0.0 10239
03:00−16ne229799 0.0 102314
06:00−10ne2290100 0.0 102259
09:00−5ne2385100 0.0 1022301
12:00−3nne2383100 0.0 1022756
15:00−2n3478100 0.1 1021820
18:00−3nnw4681100 0.1 1022397
21:00−7nw51087100 0.1 1025400
23 april, fri
fri2300:00−13w3796100 0.0 1026100
03:00−15wsw49965 0.0 1027143
06:00−13wsw4119443 0.0 1027263
09:00−6wsw5887100 0.0 1025594
12:00−3wsw5779100 0.1 10231157
15:00−1wsw4669100 0.3 10201316
18:00−2ssw2483100 0.1 1017139
21:00−4sse2597100 0.9 1015183
24 april, sat
sat2400:00−6wsw1198100 1.6 101421
03:00−7nw2397100 2.1 101453
06:00−6nnw2496100 1.2 1015205
09:00−5nnw3394100 2.6 1016445
12:00−3nne3493100 1.5 1016674
15:00−1nne467096 2.4 10171227
18:00−2nnw5880100 0.7 1018584
21:00−9nw38905 0.8 1020112
25 april, sun
sun2500:00−14nw239547 0.0 102035
03:00−19w229923 0.0 102011
06:00−11w2410099 0.0 1019169
09:00−5w238896 0.1 1017506
12:00−3wsw2279100 0.1 1016818
15:00−2wsw227490 0.2 1014860
18:00−2ssw118358 0.1 101333
21:00−11sse118911 0.1 101310